Flag for Germany Weather past 2 weeks in Göppingen, Baden-Württemberg, Germany

Now
52 °F

Fog.


Feels Like: N/A
Forecast: 50 / 68 °F
Wind: N/A

Location: Stoetten

Current Time: Sep 2, 2015 at 5:10:23 AM

Latest Report: Sep 2, 2015 at 4:00 AM


Visibility: 2 mi

Pressure: 30.08 "Hg

Humidity: 99%

Dew point: 52 °F

Location of GöppingenLocation

Historic Weather in Göppingen — Graph

°F

Göppingen temperature yesterday

Maximum temperature yesterday: 76 °F (at 11:00 AM)
Minimum temperature yesterday: 55 °F (at 11:00 PM)
Average temperature yesterday: 67 °F

Past Weeks' High & Low Weather Summary

 TemperatureHumidityPressure
High87 °F (Aug 30, 5:00 PM)100% (Aug 18, 4:00 AM)30.28 "Hg (Aug 18, 4:00 AM)
Low48 °F (Aug 18, 7:00 AM)31% (Aug 31, 7:00 PM)29.67 "Hg (Aug 24, 3:00 PM)
Average64 °F68%30.01 "Hg
* Reported Aug 18 4:00 AM — Sep 2 4:00 AM, Göppingen, Weather by CustomWeather, © 2015

Note: Actual official high and low records may vary slightly from our data, if they occured in-between our weather recording intervals... More about our weather records

Advertising

Göppingen weather history for previous 24 hours

 ConditionsComfort  
Time TempWeatherWind HumidityBarometerVisibility
4:00 AM
Wed, Sep 2
52 °FFog.N/A99%30.08 "Hg2 mi
3:00 AM53 °FLow clouds.N/A100%30.07 "Hg1 mi
2:00 AM52 °FLow clouds.N/A99%30.07 "Hg3 mi
1:00 AM54 °FLow clouds.N/A100%30.05 "Hg1 mi
11:00 PM
Tue, Sep 1
55 °FDrizzle. Low clouds.7 mph100%30.03 "Hg0 mi
10:00 PM56 °FLight freezing rain. Low clouds.N/A100%30.01 "Hg1 mi
9:00 PM57 °FRain. Dense fog.7 mph100%29.98 "Hg0 mi
8:00 PM57 °FLight rain. Dense fog.N/A100%29.96 "Hg0 mi
7:00 PM57 °FRain. Dense fog.9 mph100%29.95 "Hg0 mi
6:00 PM59 °FRain. Dense fog.9 mph100%29.91 "Hg1 mi
5:00 PM67 °FLight rain. Overcast.8 mph69%29.84 "Hg22 mi
4:00 PM70 °FOvercast.8 mph59%29.82 "Hg37 mi
3:00 PM67 °FOvercast.7 mph70%29.84 "Hg34 mi
2:00 PM66 °FLight rain. Overcast.10 mph70%29.85 "Hg19 mi
1:00 PM72 °FOvercast.13 mph52%29.80 "Hg28 mi
12:00 PM75 °FLight rain. Partly sunny.9 mph43%29.78 "Hg28 mi
11:00 AM76 °FPartly sunny.7 mph44%29.77 "Hg28 mi
10:00 AM76 °FScattered clouds.5 mph48%29.77 "Hg28 mi
9:00 AM72 °FPassing clouds.2 mph55%29.79 "Hg31 mi
8:00 AM68 °FPassing clouds.5 mph58%29.81 "Hg37 mi
7:00 AM69 °FPassing clouds.2 mph55%29.81 "Hg34 mi
5:00 AM68 °FClear.3 mph57%29.85 "Hg31 mi
Weather by CustomWeather, © 2015

See weather overviewHow to use our weather pages